Home > Products > Valid Products > RWR

000
ASUS41 KBGM 301810
RWRBGM

REGIONAL WEATHER ROUNDUP
NATIONAL WEATHER SERVICE BINGHAMTON NY
200 PM EDT MON MAY 30 2016

Note: "fair" indicates few or no clouds below 12,000 feet with no
significant weather and/or obstructions to visibility.

* = Station(s) that does not report precipitation, such as rain,
snow, etc, also no thunder or fog.

NYZ009-015>018-022>025-036-037-044>046-055>057-062-301900
...Central New York...

CITY           SKY/WX    TMP DP  RH WIND       PRES   REMARKS
Binghamton     PTSUNNY   77  60  55 NW5       29.95F
Cortland       FAIR      81  63  54 NW8       29.94F
Dansville      MOSUNNY   83  56  39 W8G20     29.94F
Elmira         MOSUNNY   84  61  45 W10       29.91F
Ithaca         PTSUNNY   80  62  54 W9        29.94F
Hamilton       PTSUNNY   82  59  44 NW6       29.93S
Hornell        PTSUNNY   81  54  39 NW14G23   29.99S
Monticello     MOSUNNY   79  64  61 N5        29.98F
Norwich        MOSUNNY   81  59  47 W5        29.93F
Oneonta        SUNNY     79  55  44 SW10      29.96F
Penn Yan       MOSUNNY   81  56  42 W12G20    29.94F
Rome           MOSUNNY   81  63  54 W13G22    29.90F
Sidney         MOSUNNY   82  63  51 W5        29.93F
Syracuse       PTSUNNY   82  61  48 SW16      29.89F
$$

PAZ038>040-043-044-047-048-072-301900
...Northeast Pennsylvania...

CITY           SKY/WX    TMP DP  RH WIND       PRES   REMARKS
Hazleton       MOSUNNY   79  61  53 W3        30.03S
Scranton       MOSUNNY   82  60  47 S6        29.95F
$$
&&
KEY
WCI = Wind Chill Index
VSB = Visibility
HX  = Heat Index
$$






000
ASUS41 KBGM 301310
RWRBGM

REGIONAL WEATHER ROUNDUP
NATIONAL WEATHER SERVICE BINGHAMTON NY
900 AM EDT MON MAY 30 2016

Note: "fair" indicates few or no clouds below 12,000 feet with no
significant weather and/or obstructions to visibility.

* = Station(s) that does not report precipitation, such as rain,
snow, etc, also no thunder or fog.

NYZ009-015>018-022>025-036-037-044>046-055>057-062-301400
...Central New York...

CITY           SKY/WX    TMP DP  RH WIND       PRES   REMARKS
Binghamton     MOSUNNY   67  59  75 SW9       30.02S
Cortland       FAIR      70  63  78 SW7       30.01S
Dansville      SUNNY     73  59  61 W6        29.98F
Elmira         SUNNY     71  61  70 SW7       29.99F
Ithaca         SUNNY     71  61  70 S7        30.01S
Hamilton       MOSUNNY   73  57  56 SW5       30.00S
Hornell        SUNNY     72  61  68 W7        30.03S
Monticello     CLOUDY    63  63 100 NW6       30.05F
Penn Yan       SUNNY     71  61  70 S8        29.98S
Rome           MOSUNNY   72  63  73 S6        29.97S
Sidney         MOSUNNY   72  64  78 W6        30.01S
Syracuse       MOSUNNY   74  62  66 SW10      29.94S
$$

PAZ038>040-043-044-047-048-072-301400
...Northeast Pennsylvania...

CITY           SKY/WX    TMP DP  RH WIND       PRES   REMARKS
Hazleton       CLOUDY    68  63  83 W3        30.09R
Scranton       CLOUDY    67  62  84 W5        30.03F
$$
&&
KEY
WCI = Wind Chill Index
VSB = Visibility
HX  = Heat Index
$$






000
ASUS41 KBGM 301210
RWRBGM

REGIONAL WEATHER ROUNDUP
NATIONAL WEATHER SERVICE BINGHAMTON NY
800 AM EDT MON MAY 30 2016

Note: "fair" indicates few or no clouds below 12,000 feet with no
significant weather and/or obstructions to visibility.

* = Station(s) that does not report precipitation, such as rain,
snow, etc, also no thunder or fog.

NYZ009-015>018-022>025-036-037-044>046-055>057-062-301300
...Central New York...

CITY           SKY/WX    TMP DP  RH WIND       PRES   REMARKS
Binghamton     PTSUNNY   65  57  75 S7        30.02S
Cortland       FAIR      64  61  88 CALM      30.01S
Dansville      SUNNY     69  60  73 SE7       29.99R
Elmira         CLOUDY    64  62  93 SW6       30.00R FOG
Ithaca         MOSUNNY   68  61  78 S7        30.01R
Hamilton       CLOUDY    70  57  64 SE6       30.00S
Hornell        SUNNY     68  59  73 CALM      30.03S
Monticello     CLOUDY    61  59  94 CALM      30.06R
Penn Yan       SUNNY     68  60  75 S10       29.98S
Rome           PTSUNNY   69  65  86 SE3       29.97R
Sidney         MOSUNNY   70  66  88 CALM      30.01S
Syracuse       PTSUNNY   71  63  75 S9        29.94R
$$

PAZ038>040-043-044-047-048-072-301300
...Northeast Pennsylvania...

CITY           SKY/WX    TMP DP  RH WIND       PRES   REMARKS
Hazleton       PTSUNNY   63  63 100 CALM      30.08F
Scranton       CLOUDY    65  62  90 CALM      30.04R
$$
&&
KEY
WCI = Wind Chill Index
VSB = Visibility
HX  = Heat Index
$$






000
ASUS41 KBGM 301110
RWRBGM

REGIONAL WEATHER ROUNDUP
NATIONAL WEATHER SERVICE BINGHAMTON NY
700 AM EDT MON MAY 30 2016

Note: "fair" indicates few or no clouds below 12,000 feet with no
significant weather and/or obstructions to visibility.

* = Station(s) that does not report precipitation, such as rain,
snow, etc, also no thunder or fog.

NYZ009-015>018-022>025-036-037-044>046-055>057-062-301200
...Central New York...

CITY           SKY/WX    TMP DP  RH WIND       PRES   REMARKS
Binghamton     CLOUDY    61  54  77 S6        30.02R
Cortland       PTSUNNY   61  61 100 CALM      30.01R
Dansville      SUNNY     65  59  81 SE8       29.98R
Elmira         FOG       62  60  93 SW3       29.99S VSB 1/4
Ithaca         PTSUNNY   64  60  87 S8        30.00R
Hamilton       SUNNY     68  59  73 S6        30.00R
Hornell        SUNNY     63  59  88 SE3       30.03S
Monticello     PTSUNNY   59  57  94 CALM      30.04F
Penn Yan       SUNNY     65  61  87 S9        29.98R
Rome           MOSUNNY   67  65  93 E5        29.96S
Sidney         SUNNY     66  64  94 CALM      30.01S
Syracuse       PTSUNNY   67  63  87 S7        29.93S
$$

PAZ038>040-043-044-047-048-072-301200
...Northeast Pennsylvania...

CITY           SKY/WX    TMP DP  RH WIND       PRES   REMARKS
Hazleton       LGT RAIN  61  61 100 CALM      30.08R
Scranton       CLOUDY    63  62  97 SW5       30.03R FOG
$$
&&
KEY
WCI = Wind Chill Index
VSB = Visibility
HX  = Heat Index
$$






000
ASUS41 KBGM 300910
RWRBGM

REGIONAL WEATHER ROUNDUP
NATIONAL WEATHER SERVICE BINGHAMTON NY
500 AM EDT MON MAY 30 2016

Note: "fair" indicates few or no clouds below 12,000 feet with no
significant weather and/or obstructions to visibility.

* = Station(s) that does not report precipitation, such as rain,
snow, etc, also no thunder or fog.

NYZ009-015>018-022>025-036-037-044>046-055>057-062-301000
...Central New York...

CITY           SKY/WX    TMP DP  RH WIND       PRES   REMARKS
Binghamton     CLOUDY    62  55  77 S5        30.01S
Cortland       FAIR      61  61 100 CALM      30.00S FOG
Dansville      MOCLDY    64  59  83 S5        29.96S
Elmira         FOG       60  59  96 CALM      29.98S VSB 1/4
Ithaca         PTCLDY    64  62  93 SE8       29.99F
Hamilton       PTCLDY    66  63  88 S3        29.99R
Hornell        CLEAR     61  57  88 CALM      30.02S
Monticello     CLOUDY    61  61 100 CALM      30.05S
Penn Yan       PTCLDY    64  62  93 SW8       29.96F
Rome           CLOUDY    64  64 100 E6        29.96R
Sidney         LGT RAIN  66  63  88 CALM      30.00S
Syracuse       MOCLDY    66  62  87 S5        29.93R
$$

PAZ038>040-043-044-047-048-072-301000
...Northeast Pennsylvania...

CITY           SKY/WX    TMP DP  RH WIND       PRES   REMARKS
Hazleton       DRIZZLE   61  61 100 E3        30.06F
Scranton       LGT RAIN  63  60  90 CALM      30.01F
$$
&&
KEY
WCI = Wind Chill Index
VSB = Visibility
HX  = Heat Index
$$






000
ASUS41 KBGM 300810
RWRBGM

REGIONAL WEATHER ROUNDUP
NATIONAL WEATHER SERVICE BINGHAMTON NY
400 AM EDT MON MAY 30 2016

Note: "fair" indicates few or no clouds below 12,000 feet with no
significant weather and/or obstructions to visibility.

* = Station(s) that does not report precipitation, such as rain,
snow, etc, also no thunder or fog.

NYZ009-015>018-022>025-036-037-044>046-055>057-062-300900
...Central New York...

CITY           SKY/WX    TMP DP  RH WIND       PRES   REMARKS
Binghamton     LGT RAIN  64  59  83 S6        30.01S
Cortland       FAIR      63  63 100 CALM      30.00R
Dansville      CLOUDY    64  60  87 SE8       29.96S
Elmira         FOG       61  59  93 CALM      29.99R VSB 1
Ithaca         CLOUDY    64  62  93 SW3       30.00R
Hamilton       MOCLDY    66  63  88 S5        29.99S
Hornell        CLEAR     61  59  94 E3        30.02S
Monticello     CLOUDY    63  59  88 CALM      30.05F
Penn Yan       PTCLDY    65  62  90 SW6       29.97F
Rome           CLOUDY    66  66 100 N5        29.95S
Sidney         LGT RAIN  66  66 100 S5        30.00S
Syracuse       CLOUDY    65  63  93 S7        29.92S
$$

PAZ038>040-043-044-047-048-072-300900
...Northeast Pennsylvania...

CITY           SKY/WX    TMP DP  RH WIND       PRES   REMARKS
Hazleton       HVY RAIN  61  59  94 CALM      30.07F
Scranton       LGT RAIN  64  62  93 CALM      30.03S FOG
$$
&&
KEY
WCI = Wind Chill Index
VSB = Visibility
HX  = Heat Index
$$






000
ASUS41 KBGM 300710
RWRBGM

REGIONAL WEATHER ROUNDUP
NATIONAL WEATHER SERVICE BINGHAMTON NY
300 AM EDT MON MAY 30 2016

Note: "fair" indicates few or no clouds below 12,000 feet with no
significant weather and/or obstructions to visibility.

* = Station(s) that does not report precipitation, such as rain,
snow, etc, also no thunder or fog.

NYZ009-015>018-022>025-036-037-044>046-055>057-062-300800
...Central New York...

CITY           SKY/WX    TMP DP  RH WIND       PRES   REMARKS
Binghamton     MOCLDY    64  63  96 SE5       30.01F
Cortland       FAIR      63  63 100 CALM      30.00S
Dansville      PTCLDY    65  62  90 SE9       29.96F
Elmira         CLOUDY    65  62  90 CALM      29.98F FOG
Ithaca         CLOUDY    65  63  93 SE5       29.99F
Hamilton       PTCLDY    66  64  94 SE5       29.99F
Hornell        PTCLDY    63  61  94 SE5       30.01F
Monticello     CLOUDY    64  61  88 S7        30.07F
Penn Yan       CLOUDY    65  62  90 SW8       29.98F
Rome           CLOUDY    66  66 100 E8        29.95F
Sidney         CLOUDY    70  70 100 CALM      30.01F
Syracuse       CLOUDY    65  64  97 SE9       29.92F
$$

PAZ038>040-043-044-047-048-072-300800
...Northeast Pennsylvania...

CITY           SKY/WX    TMP DP  RH WIND       PRES   REMARKS
Hazleton       RAIN      61  61 100 CALM      30.08F
Scranton       RAIN      66  64  93 SW6       30.03F FOG
$$
&&
KEY
WCI = Wind Chill Index
VSB = Visibility
HX  = Heat Index
$$






000
ASUS41 KBGM 300610
RWRBGM

REGIONAL WEATHER ROUNDUP
NATIONAL WEATHER SERVICE BINGHAMTON NY
200 AM EDT MON MAY 30 2016

Note: "fair" indicates few or no clouds below 12,000 feet with no
significant weather and/or obstructions to visibility.

* = Station(s) that does not report precipitation, such as rain,
snow, etc, also no thunder or fog.

NYZ009-015>018-022>025-036-037-044>046-055>057-062-300700
...Central New York...

CITY           SKY/WX    TMP DP  RH WIND       PRES   REMARKS
Binghamton     CLOUDY    65  64  97 CALM      30.04F
Cortland       CLOUDY    64  64 100 CALM      30.02F
Dansville      PTCLDY    63  61  93 E8        29.98F
Elmira         CLOUDY    66  62  87 CALM      30.00F
Ithaca         CLOUDY    64  63  96 SE6       30.01F
Hamilton       CLOUDY    66  64  94 CALM      30.01F
Hornell        CLEAR     64  61  88 SE5       30.03F
Monticello     MOCLDY    64  63  94 CALM      30.08F
Penn Yan       MOCLDY    65  63  93 SW7       29.99F
Rome           CLOUDY    66  66 100 E5        29.98F
Sidney         RAIN      70  70 100 CALM      30.03S
Syracuse       CLOUDY    66  64  93 SE5       29.94F
$$

PAZ038>040-043-044-047-048-072-300700
...Northeast Pennsylvania...

CITY           SKY/WX    TMP DP  RH WIND       PRES   REMARKS
Hazleton       LGT RAIN  63  61  94 W3        30.09F
Scranton       LGT RAIN  68  64  87 SW6       30.04F
$$
&&
KEY
WCI = Wind Chill Index
VSB = Visibility
HX  = Heat Index
$$






000
ASUS41 KBGM 300510
RWRBGM

REGIONAL WEATHER ROUNDUP
NATIONAL WEATHER SERVICE BINGHAMTON NY
100 AM EDT MON MAY 30 2016

Note: "fair" indicates few or no clouds below 12,000 feet with no
significant weather and/or obstructions to visibility.

* = Station(s) that does not report precipitation, such as rain,
snow, etc, also no thunder or fog.

NYZ009-015>018-022>025-036-037-044>046-055>057-062-300600
...Central New York...

CITY           SKY/WX    TMP DP  RH WIND       PRES   REMARKS
Binghamton     LGT RAIN  66  64  93 NW5       30.06S
Cortland       CLOUDY    64  64 100 CALM      30.04F
Dansville      CLOUDY    66  63  90 S6        30.01S
Elmira         CLOUDY    66  63  90 CALM      30.03S
Ithaca         CLOUDY    64  63  96 SE5       30.03F
Hamilton       CLOUDY    68  64  88 CALM      30.04F
Hornell        CLEAR     64  63  94 SE6       30.04F
Monticello     CLOUDY    66  63  88 S3        30.09S
Penn Yan       CLOUDY    66  62  87 S8        30.00F
Rome           LGT RAIN  67  67 100 E7        30.02F FOG
Sidney         MOCLDY    70  70 100 CALM      30.04S
Syracuse       LGT RAIN  67  63  87 SE9       29.98F
$$

PAZ038>040-043-044-047-048-072-300600
...Northeast Pennsylvania...

CITY           SKY/WX    TMP DP  RH WIND       PRES   REMARKS
Hazleton       LGT RAIN  64  64 100 CALM      30.11F
Scranton       LGT RAIN  69  64  84 SW6       30.05F
$$
&&
KEY
WCI = Wind Chill Index
VSB = Visibility
HX  = Heat Index
$$






    US Dept of Commerce
    National Oceanic and Atmospheric Administration
    National Weather Service
    1325 East West Highway
    Silver Spring, MD 20910
    Page Author: NWS Internet Services Team
Disclaimer
Information Quality
Credits
Glossary
Privacy Policy
Freedom of Information Act (FOIA)
About Us
Career Opportunities